EW7448 Weather Reports


Display with metric or nautical units.
time (UTC)temp
F
wind
direction
speed
MPH
gust
MPH
rain 1hr
in
rain 24hr
in
rain mn
in
humidity
%
barometer
mb
20260901203041 86 51 4.0 12.0 0.00 0.00 0.00 85 1012.8
20260901201535 86 17 2.0 9.0 0.00 0.00 0.00 86 1012.8
20260901200044 86 51 4.0 10.0 0.00 0.00 0.00 85 1013.0
20260901194539 87 15 4.0 8.0 0.00 0.00 0.00 83 1013.2
20260901193033 87 49 3.0 10.0 0.00 0.00 0.00 85 1013.2
20260901191539 87 124 2.0 7.0 0.00 0.00 0.00 82 1013.1
20260901190041 87 48 3.0 9.0 0.00 0.00 0.00 83 1013.4
20260901184535 87 46 3.0 12.0 0.00 0.00 0.00 83 1013.4
20260901183034 88 11 3.0 10.0 0.00 0.00 0.00 82 1013.7
20260901181532 88 24 4.0 10.0 0.00 0.00 0.00 82 1013.8
20260901180032 88 53 2.0 11.0 0.00 0.00 0.00 83 1013.8
20260901174537 87 130 4.0 12.0 0.00 0.00 0.00 84 1014.1
20260901173031 88 11 4.0 10.0 0.00 0.00 0.00 84 1014.3
20260901171528 88 55 2.0 8.0 0.00 0.00 0.00 83 1014.4
20260901170026 89 49 2.0 9.0 0.00 0.00 0.00 81 1014.5
20260901164524 88 26 2.0 8.0 0.00 0.00 0.00 81 1014.6
20260901163023 88 49 4.0 10.0 0.00 0.00 0.00 79 1014.7
20260901161522 88 51 3.0 9.0 0.00 0.00 0.00 81 1014.7
20260901160023 88 345 2.0 10.0 0.00 0.00 0.00 81 1014.7
20260901154520 87 74 4.0 9.0 0.00 0.00 0.00 81 1014.8
20260901153020 87 17 4.0 8.0 0.00 0.00 0.00 81 1015.1
20260901151529 88 54 3.0 9.0 0.00 0.00 0.00 82 1014.9
20260901150021 88 98 2.0 7.0 0.00 0.00 0.00 82 1014.9
20260901144520 88 31 1.0 7.0 0.00 0.00 0.00 82 1014.9
20260901143012 87 56 0.0 9.0 0.00 0.00 0.00 85 1014.6
20260901141508 85 4 0.0 4.0 0.00 0.00 0.00 88 1014.6
20260901140005 84 45 0.0 2.0 0.00 0.00 0.00 89 1014.5
20260901134504 83 38 0.0 1.0 0.00 0.00 0.00 91 1014.5
20260901133004 84 15 0.0 3.0 0.00 0.00 0.00 90 1014.4
20260901131501 84 346 0.0 2.0 0.00 0.00 0.00 92 1014.4
20260901130058 82 356 0.0 4.0 0.00 0.00 0.00 95 1014.4
20260901124553 81 24 0.0 3.0 0.00 0.00 0.00 98 1014.2
20260901123103 79 18 0.0 1.0 0.00 0.00 0.00 99 1014.2
20260901121602 78 10 0.0 1.0 0.00 0.00 0.00 99 1014.1
20260901120048 77 9 0.0 2.0 0.00 0.00 0.00 99 1013.9
20260901114546 77 328 0.0 1.0 0.00 0.00 0.00 99 1013.9
20260901113049 77 242 0.0 0.0 0.00 0.00 0.00 99 1013.6
20260901111547 76 242 0.0 1.0 0.00 0.00 0.00 99 1013.3
20260901110044 76 242 0.0 0.0 0.00 0.00 0.00 98 1013.1
20260901104555 76 242 0.0 0.0 0.00 0.00 0.00 98 1013.1
20260901103043 76 242 0.0 0.0 0.00 0.00 0.00 98 1013.1
20260901101546 76 242 0.0 0.0 0.00 0.00 0.00 98 1013.0
20260901100058 76 242 0.0 0.0 0.00 0.00 0.00 98 1013.0
20260901094541 76 242 0.0 0.0 0.00 0.00 0.00 98 1013.0
20260901093043 76 242 0.0 1.0 0.00 0.00 0.00 98 1012.9
20260901091541 76 242 0.0 0.0 0.00 0.00 0.00 98 1013.0
20260901090041 76 239 0.0 0.0 0.00 0.00 0.00 98 1013.0
20260901084538 76 238 0.0 0.0 0.00 0.00 0.00 97 1013.0
20260901083038 76 239 0.0 0.0 0.00 0.00 0.00 97 1012.9
20260901081536 77 239 0.0 0.0 0.00 0.00 0.00 97 1012.9
20260901080036 77 239 0.0 0.0 0.00 0.00 0.00 97 1013.1
20260901074534 77 238 0.0 0.0 0.00 0.00 0.00 97 1013.2
20260901073032 77 238 0.0 0.0 0.00 0.00 0.00 96 1013.2
20260901071531 77 239 0.0 1.0 0.00 0.00 0.00 96 1013.3
20260901070030 77 238 0.0 0.0 0.00 0.00 0.00 96 1013.4
20260901064535 78 239 0.0 0.0 0.00 0.00 0.00 96 1013.5
20260901063007 78 239 0.0 1.0 0.00 0.00 0.00 97 1013.9
20260901061507 78 239 0.0 1.0 0.00 0.00 0.00 97 1014.0
20260901060004 78 295 0.0 0.0 0.00 0.00 0.00 97 1013.9
20260901054501 78 296 0.0 1.0 0.00 0.01 0.00 97 1014.2
20260901053116 78 324 0.0 0.0 0.00 0.01 0.00 97 1014.4
20260901051605 78 53 0.0 0.0 0.00 0.01 0.00 97 1014.4
20260901050100 78 53 0.0 0.0 0.00 0.01 0.00 97 1014.5
20260901044618 78 53 0.0 0.0 0.00 0.01 0.00 97 1014.6
20260901043057 78 53 0.0 0.0 0.00 0.01 0.00 97 1014.7
20260901041555 78 53 0.0 0.0 0.00 0.01 0.00 96 1014.6
20260901040055 79 53 0.0 0.0 0.00 0.01 0.00 96 1014.5
20260901034552 79 53 0.0 0.0 0.00 0.01 0.01 96 1014.6
20260901033052 79 53 0.0 0.0 0.00 0.01 0.01 96 1014.7
20260901031552 79 53 0.0 0.0 0.00 0.01 0.01 95 1014.8
20260901030054 80 53 0.0 0.0 0.00 0.01 0.01 95 1014.8
20260901024551 79 53 0.0 0.0 0.00 0.01 0.01 95 1015.0
20260901023050 79 53 0.0 0.0 0.00 0.01 0.01 95 1014.9
20260901021550 79 53 0.0 0.0 0.00 0.01 0.01 95 1014.8
20260901020049 80 53 0.0 0.0 0.00 0.01 0.01 95 1014.6
20260901014552 80 53 0.0 0.0 0.00 0.01 0.01 94 1014.3
20260901013049 80 53 0.0 0.0 0.00 0.01 0.01 94 1014.3
20260901011553 81 53 0.0 1.0 0.00 0.01 0.01 93 1014.3
20260901010049 81 53 0.0 1.0 0.00 0.01 0.01 93 1014.2
20260901004550 81 53 0.0 2.0 0.00 0.01 0.01 93 1014.0
20260901003047 81 19 0.0 4.0 0.00 0.01 0.01 93 1014.0
20260901001549 81 34 0.0 3.0 0.00 0.01 0.01 93 1014.0
20260901000047 82 42 0.0 2.0 0.00 0.01 0.01 93 1014.0
20260831234545 82 35 0.0 4.0 0.00 0.01 0.01 93 1013.9
20260831233045 82 41 0.0 4.0 0.00 0.01 0.01 92 1013.8
20260831231544 82 39 0.0 3.0 0.00 0.01 0.01 92 1013.7
20260831230046 82 44 0.0 4.0 0.00 0.01 0.01 91 1013.7
20260831224546 82 37 0.0 8.0 0.00 0.01 0.01 91 1013.7
20260831223043 82 6 0.0 3.0 0.00 0.01 0.01 91 1013.6
20260831221542 82 33 0.0 1.0 0.00 0.01 0.01 92 1013.7
20260831220043 81 5 0.0 1.0 0.00 0.01 0.01 92 1013.8
20260831214603 81 19 0.0 4.0 0.00 0.01 0.01 92 1013.8
20260831213041 81 15 0.0 1.0 0.00 0.01 0.01 92 1013.9
20260831211541 82 335 0.0 1.0 0.00 0.01 0.01 92 1013.9
20260831210040 82 290 0.0 5.0 0.00 0.01 0.01 92 1014.0
20260831204540 84 49 0.0 7.0 0.00 0.01 0.01 91 1014.1